Location: Fauquembergues
(50.6005°N, 2.0987°E)
Time: 19:51:45
(UTC+00:00)

SeaSat 1 - Pass Details

Date: 14 July 2020
Orbit: 744 x 748 km, 108.0° (Epoch: 14 August)

Event Time Altitude Azimuth Distance (km) Brightness Sun altitude
Rises 00:36:17 0° 43° (NE) 3,201 6.7 -17.3°
Reaches altitude 10° 00:39:27 10° 65° (ENE) 2,272 5.4 -17.2°
Maximum altitude 00:42:28 16° 103° (ESE) 1,883 4.5 -17.1°
Enters shadow 00:45:02 11° 136° (SE) 2,169 4.5 -17.0°
